Back to catalog

BREEZE-M DEB

LostHEO
NORAD 48532·DEBRIS·🇷🇺 Russia

Launched Mar 14, 2008 from Baikonur Cosmodrome

Loading…

Next Passes (next 24 hours)

TLE

StaleSource: Space-Track

Epoch: Jul 19, 2026, 02:07 UTC

1 48532U 08011DX  26200.08887195  .00001556  00000-0  97031-1 0  9996
2 48532  49.0987  41.4250 6331550 204.6133 103.1346  3.05580921 58160

Track BREEZE-M DEB in real time with AllMySat

Download on the App Store